Temperature
17 17 17 18 18 18 18 18 18 18 18 18 18 18 17 17 17 17 18 18 18 18 18 18 18 18 18 18 18 18 18 18 18 18 18 18 18 18 18 18 18 18 18
18 17 17 18 18 18 18 18 18 18 17 17 17 17 17 17 17 17 17 17 17 17 17 17 17 18 18 18 18 17 17 17 18 18 18 18 18 18 18 18 18 18 18
18 17 17 18 18 17 17 17 17 17 17 17 17 17 17 17 17 17 17 17 17 17 17 17 17 17 18 17 17 17 17 17 17 17 17 18 18 18 18 18 18 18 18
18 18 18 18 18 17 17 17 17 17 17 17 17 17 17 17 17 17 17 17 17 17 17 17 17 17 17 17 17 17 17 17 17 17 17 17 17 17 17 18 18 18 18
18 18 18 18 18 17 17 17 17 17 17 17 17 17 17 17 17 17 17 17 17 17 17 17 17 17 17 17 17 17 17 17 17 17 17 17 17 17 17 17 18 18 18
17 17 17 18 17 17 17 17 17 17 17 17 17 17 16 16 16 17 17 17 17 17 17 17 17 17 17 17 17 17 17 17 17 17 17 17 17 17 17 17 17 17 17
17 17 17 17 17 17 17 17 17 17 17 17 17 17 16 16 16 16 16 17 17 17 17 17 17 17 17 17 16 17 17 17 17 17 17 17 17 17 17 17 17 17 17
17 17 17 17 17 17 17 17 17 17 17 17 17 17 16 17 17 17 17 17 17 17 16 16 17 16 16 16 16 16 16 16 17 17 17 17 16 17 17 17 17 17 17
17 17 17 17 17 17 17 17 17 17 17 17 17 16 17 17 17 16 16 16 16 16 16 16 16 16 16 16 16 16 16 16 16 16 16 16 16 16 16 17 17 16 16
17 17 17 17 17 17 17 17 17 17 17 17 16 16 16 16 16 16 16 16 16 16 16 16 16 16 16 16 16 16 16 16 16 16 16 16 16 16 16 16 16 16 16
17 17 17 17 17 17 17 17 17 17 16 16 16 16 16 16 16 16 16 16 16 16 16 16 16 16 16 16 16 16 16 16 16 16 16 15 16 16 16 16 16 16 16
18 17 17 17 17 17 17 17 17 17 16 16 16 16 16 16 16 16 16 16 16 16 16 16 16 16 16 16 16 16 16 16 16 16 15 15 15 15 15 16 15 16 16
18 17 17 17 17 17 17 17 17 17 17 16 16 16 16 16 16 16 16 16 16 16 16 16 16 16 16 16 16 16 16 16 15 15 15 15 15 15 15 15 15 15 15
18 18 18 17 17 17 17 17 17 17 17 17 17 16 16 16 16 16 16 16 16 16 16 16 16 16 16 16 16 16 16 16 15 15 15 15 15 15 15 15 15 15 15
18 18 18 18 17 17 17 17 17 17 17 17 17 17 17 17 16 16 16 16 16 16 16 16 16 16 16 16 16 16 16 15 15 15 15 15 15 15 15 15 15 15 15
18 18 18 18 18 17 17 17 17 17 17 17 17 17 17 17 16 16 16 16 16 16 16 16 16 16 16 16 16 15 15 15 15 15 15 15 15 15 15 15 15 15 15
18 18 18 18 18 18 17 17 17 17 17 17 17 17 17 17 16 16 16 16 16 16 16 16 16 16 16 16 15 15 15 15 15 15 15 15 15 15 15 14 14 14 14
19 18 18 18 18 17 17 17 17 17 17 17 17 17 17 17 16 16 16 16 16 16 16 16 16 16 16 16 15 15 15 15 15 15 15 15 15 15 15 14 14 14 14
19 18 18 18 18 18 17 17 17 17 17 17 17 17 17 17 16 16 16 16 16 16 16 16 16 16 15 15 15 15 15 15 15 15 15 15 15 15 15 15 14 14 14
19 18 18 18 18 18 17 17 17 17 17 17 17 17 17 16 16 16 16 16 16 16 16 16 15 15 15 15 15 15 15 15 15 15 15 15 15 15 15 15 14 14 14
19 18 18 18 18 18 17 17 17 17 17 17 17 16 16 16 16 16 16 16 16 16 16 15 15 15 15 15 15 15 14 14 14 14 14 14 14 14 14 14 14 14 14
19 18 18 18 18 18 17 17 17 17 17 16 16 16 16 16 16 16 16 16 16 15 15 15 15 15 15 15 15 15 14 14 14 14 14 14 14 14 14 14 14 14 14
18 18 18 18 18 17 17 17 17 17 16 16 16 16 16 16 16 16 16 16 15 15 15 15 15 15 15 15 15 15 14 14 14 14 14 14 14 14 14 14 14 14 14
18 18 18 18 17 17 17 17 17 17 16 16 16 16 16 16 16 16 16 16 15 15 15 15 15 15 15 15 15 14 14 14 14 13 13 13 13 13 13 13 13 13 13
18 18 18 18 17 17 17 17 17 17 16 16 16 16 16 16 16 15 15 15 15 15 15 15 15 15 14 14 14 14 14 14 14 14 13 13 13 13 13 13 13 13 13
18 18 18 18 17 17 17 17 16 16 16 16 16 16 16 16 16 15 15 15 15 15 15 15 15 14 14 14 14 14 14 14 14 14 13 13 13 12 12 13 13 13 13
Wind_Speed
1 2 8 9 9 10 10 10 11 11 11 11 12 12 12 13 13 13 13 13 12 12 12 12 12 12 12 12 11 11 10 10 10 10 9 9 9 9 9 9 8 7 8
5 6 9 9 9 9 9 10 10 11 11 11 12 12 12 12 12 12 12 12 12 11 12 12 11 11 11 11 11 11 11 10 9 9 9 8 8 8 8 8 8 7 8
7 7 9 9 9 9 9 10 10 11 11 12 11 11 11 11 11 11 11 12 11 12 11 11 11 11 11 11 11 11 11 11 10 9 8 7 6 7 8 8 8 8 8
8 8 8 9 9 9 10 10 10 10 11 11 11 11 10 11 11 11 11 11 11 11 11 10 10 10 10 10 11 11 11 12 11 9 7 6 6 7 8 8 8 8 8
8 8 9 10 10 10 10 10 10 10 10 10 10 10 10 11 10 10 10 10 10 10 10 10 10 10 10 10 11 11 11 11 11 9 8 7 6 8 9 8 8 8 8
7 8 10 11 11 10 10 10 10 10 10 10 10 10 11 11 10 10 10 10 10 10 9 9 9 10 10 11 12 12 12 11 10 9 8 7 6 8 9 8 8 9 9
6 7 9 10 10 10 10 9 9 9 9 10 10 10 10 10 10 10 10 10 9 9 9 9 9 10 10 11 12 12 12 11 10 9 8 7 7 8 8 9 9 9 9
8 7 8 10 10 10 10 9 9 9 9 9 10 10 10 10 10 9 9 9 9 8 8 8 9 10 10 11 11 12 12 11 10 9 8 7 8 9 9 9 9 9 9
7 7 6 7 8 9 9 9 8 8 9 10 10 10 10 9 8 8 8 8 8 8 8 7 8 9 9 10 11 12 13 12 10 7 7 7 9 9 9 9 9 9 9
6 5 6 6 6 6 6 7 7 7 8 9 9 8 8 8 7 7 6 7 7 7 6 6 6 7 8 9 11 12 12 11 10 8 6 7 9 10 10 9 9 9 9
5 5 5 5 5 5 5 6 6 6 6 6 6 6 6 5 4 4 5 5 6 5 5 5 5 6 7 9 10 11 10 8 8 7 6 9 10 10 10 10 9 9 9
5 5 5 5 5 5 5 5 4 4 4 4 4 5 4 4 4 4 4 4 4 4 4 4 4 6 6 6 8 9 8 8 8 6 7 10 11 11 11 11 11 10 10
5 5 5 5 5 5 3 4 3 3 4 3 4 5 5 4 4 3 2 2 2 2 3 4 4 5 5 5 6 7 8 7 7 6 8 11 11 11 11 11 11 11 12
5 5 6 6 5 5 4 3 3 2 2 2 3 5 5 4 3 3 2 2 1 2 2 3 3 4 5 7 8 8 7 7 7 7 8 11 11 11 11 11 11 11 11
5 5 5 6 5 5 4 3 3 2 2 2 3 4 6 4 2 2 2 2 2 3 3 3 4 5 5 6 7 8 7 7 7 7 8 11 11 10 10 10 11 11 12
6 5 4 5 5 5 4 3 3 3 3 3 3 4 6 5 4 3 2 3 3 4 4 5 5 5 4 5 5 6 6 6 7 7 7 8 10 11 11 10 10 11 11
5 5 4 5 5 5 4 4 4 4 4 3 3 4 6 6 6 5 3 3 3 5 6 6 6 6 5 5 4 4 4 5 6 6 6 6 7 9 10 10 10 10 10
5 4 4 5 5 4 4 3 3 4 4 3 3 4 5 6 7 6 4 3 4 6 6 4 4 4 4 4 3 3 3 4 4 5 5 5 5 6 7 9 10 9 9
6 6 4 5 5 4 4 3 3 3 3 3 3 3 4 5 7 6 4 3 6 5 4 3 3 3 3 3 3 3 3 2 3 5 4 4 5 5 5 6 7 8 8
5 5 5 5 5 5 4 3 3 3 2 3 3 3 4 5 6 6 4 4 5 4 3 3 3 3 2 2 4 4 3 2 2 3 3 4 5 5 5 5 5 5 7
5 6 5 6 4 4 3 2 2 2 1 2 2 4 5 5 6 5 4 4 4 3 3 3 3 3 2 3 4 3 4 4 3 2 3 4 4 4 5 4 4 4 4
5 5 5 5 5 4 3 2 2 2 1 1 2 4 5 5 5 5 4 3 3 3 3 3 3 2 1 2 3 3 2 4 4 3 2 2 3 4 4 4 4 4 4
5 6 6 6 5 4 4 4 4 4 3 3 3 2 3 5 5 5 5 4 3 3 3 3 3 4 2 0 1 3 3 2 1 3 3 2 2 2 3 4 5 5 5
6 6 5 5 5 4 5 5 5 4 3 1 1 1 2 4 5 5 5 5 3 3 3 3 3 3 3 1 0 1 2 4 3 0 3 3 2 2 2 3 4 4 5
5 6 5 5 4 4 5 6 5 4 3 2 2 3 2 2 4 4 5 4 3 3 2 2 2 2 2 3 2 1 2 2 2 3 1 2 2 2 1 2 3 3 3
4 5 5 6 4 4 5 5 6 6 5 4 3 3 2 2 2 2 4 4 3 3 2 2 2 3 2 3 2 2 2 2 2 3 2 1 1 1 1 1 2 2 3
Wind_Direction
158 145 121 110 106 104 102 100 100 99 101 101 98 95 92 91 90 89 90 88 87 85 83 81 80 79 78 76 77 79 79 79 76 74 75 75 74 72 77 85 91 93 103
155 135 123 114 110 107 105 104 103 102 102 102 100 99 97 96 95 92 92 90 87 86 84 81 81 78 75 73 72 73 75 76 76 72 71 72 76 78 79 85 91 98 106
128 121 120 117 115 110 107 107 107 104 103 104 104 103 100 98 97 94 93 92 89 86 84 83 81 77 73 71 72 71 70 72 72 72 68 63 74 84 84 86 89 93 100
127 124 118 116 113 110 108 106 108 108 108 108 109 107 106 101 98 97 95 92 90 86 85 83 80 77 73 71 70 69 70 71 70 68 64 61 70 86 88 89 90 92 96
125 126 124 117 111 110 108 106 108 109 110 111 111 110 107 104 101 100 98 95 92 88 86 83 79 77 74 71 69 68 70 69 68 63 64 60 70 86 88 88 89 92 95
127 128 128 122 117 113 109 109 110 112 111 111 114 113 110 106 103 102 100 99 96 92 89 85 81 79 74 72 70 68 70 68 66 64 61 60 75 86 85 86 88 91 94
132 132 131 128 123 119 114 110 109 110 114 113 115 116 112 108 106 104 103 101 99 96 92 86 82 78 74 73 72 69 68 71 69 65 58 60 76 82 84 86 87 87 88
138 137 135 133 128 123 119 114 110 110 116 118 119 118 115 111 110 107 105 104 103 99 94 88 84 80 74 70 69 68 69 75 73 68 62 64 75 78 78 83 84 86 86
139 134 135 135 130 126 125 120 114 112 117 120 119 118 118 117 116 115 111 109 106 103 96 91 85 78 74 70 68 69 74 75 68 62 66 66 74 79 79 80 82 83 85
139 142 147 144 136 130 132 137 132 131 131 129 126 125 126 125 124 123 118 114 109 104 99 93 85 78 74 74 74 74 71 66 59 56 56 70 77 80 80 82 83 82 83
147 157 160 161 160 157 154 154 152 147 144 140 139 143 135 129 130 133 132 126 115 106 97 87 83 72 70 74 76 76 71 65 56 53 59 74 78 80 80 81 83 84 82
161 170 169 172 174 176 174 161 168 168 162 157 155 160 162 156 156 156 154 141 126 103 79 73 72 64 67 73 75 77 77 68 58 56 66 74 77 78 81 82 82 86 83
168 166 168 179 174 170 167 161 165 167 169 175 175 162 156 147 146 145 141 123 105 84 59 58 53 62 76 88 88 89 86 76 66 61 68 75 76 77 78 82 84 84 81
154 157 162 169 168 174 163 157 155 154 167 168 169 152 141 137 132 136 133 142 131 94 72 65 76 80 90 98 102 98 93 86 76 69 71 75 76 76 77 78 80 81 81
154 160 164 162 165 161 149 157 139 144 148 140 120 131 138 138 135 135 132 123 119 105 98 90 87 86 92 96 104 106 100 97 86 80 75 74 73 74 77 79 81 80 80
163 166 165 160 160 151 152 148 143 149 142 119 119 127 135 134 138 132 116 102 99 103 106 99 92 87 86 92 90 99 106 106 97 88 81 73 70 70 71 75 80 81 80
161 158 157 161 149 143 148 149 148 152 144 139 137 127 126 129 133 129 115 100 98 99 97 92 82 79 80 81 77 84 98 105 103 95 88 77 70 68 69 71 75 78 80
151 144 153 149 133 132 129 127 132 136 135 142 135 125 129 128 128 123 115 105 106 102 96 89 80 77 73 73 68 69 82 95 99 102 97 88 82 76 70 70 70 73 75
155 146 144 129 127 126 114 108 106 106 109 119 119 117 127 126 129 127 118 113 115 103 89 99 87 96 94 79 69 66 61 79 95 100 99 98 96 88 81 74 69 68 69
152 141 134 127 130 123 102 84 78 78 79 87 96 114 128 126 123 125 121 113 114 101 87 91 97 86 97 98 83 63 43 43 76 87 105 100 101 98 93 83 71 59 59
138 132 137 134 133 119 102 95 97 95 90 83 89 100 114 120 122 120 118 114 117 114 123 118 107 95 82 93 83 49 21 28 48 53 79 92 92 98 97 90 83 74 61
150 142 145 151 148 140 136 134 129 122 106 96 80 72 93 108 123 127 123 126 124 120 111 105 110 109 101 99 113 99 32 8 9 23 36 75 82 84 86 88 80 76 74
157 161 161 159 157 153 136 108 86 70 55 49 50 46 64 99 111 122 127 125 130 133 138 138 136 139 152 114 115 136 141 197 322 354 24 45 54 59 68 72 69 63 67
170 163 156 155 151 145 133 127 128 125 127 165 141 97 72 91 106 117 122 125 125 126 135 153 150 148 148 173 5 80 149 153 148 354 349 10 38 52 47 76 71 68 68
166 156 154 149 146 142 137 138 135 127 137 130 105 91 74 71 93 109 115 117 120 124 132 136 130 133 144 157 164 144 93 83 108 140 205 337 7 8 38 70 82 76 80
151 144 147 146 148 147 141 139 140 140 136 125 119 113 97 75 67 88 110 109 121 129 126 127 129 130 129 125 127 131 142 141 155 146 167 200 251 309 359 42 74 84 92
Height
1535 1535 1535 1535 1535 1534 1534 1533 1533 1533 1533 1533 1533 1533 1533 1533 1533 1534 1534 1534 1534 1534 1533 1533 1533 1533 1532 1532 1532 1532 1532 1531 1531 1531 1531 1531 1531 1531 1530 1530 1531 1531 1531
1535 1535 1536 1535 1535 1535 1534 1534 1534 1533 1533 1533 1533 1533 1534 1534 1534 1534 1535 1535 1535 1534 1534 1534 1534 1534 1533 1533 1533 1533 1533 1532 1532 1532 1532 1531 1531 1531 1531 1531 1531 1531 1532
1535 1536 1536 1536 1535 1535 1535 1534 1534 1534 1534 1534 1534 1534 1534 1535 1535 1535 1535 1535 1535 1535 1535 1535 1535 1535 1534 1534 1534 1534 1534 1533 1533 1533 1532 1532 1532 1532 1532 1532 1532 1532 1532
1536 1536 1536 1536 1536 1535 1535 1535 1535 1535 1534 1534 1535 1535 1535 1536 1536 1536 1536 1536 1536 1536 1536 1536 1536 1536 1535 1535 1535 1535 1535 1534 1534 1533 1533 1533 1533 1533 1532 1532 1532 1532 1533
1537 1537 1537 1537 1536 1536 1535 1535 1535 1535 1535 1535 1535 1536 1536 1536 1536 1537 1537 1537 1537 1537 1537 1537 1537 1537 1537 1536 1536 1536 1536 1535 1535 1534 1534 1534 1533 1533 1533 1533 1533 1533 1533
1538 1538 1538 1537 1537 1536 1536 1536 1536 1536 1536 1536 1536 1536 1537 1537 1537 1538 1538 1538 1539 1539 1538 1538 1538 1538 1538 1537 1537 1537 1537 1536 1536 1535 1535 1534 1534 1534 1534 1534 1533 1534 1534
1538 1539 1538 1538 1538 1537 1537 1537 1537 1537 1537 1537 1537 1538 1538 1538 1539 1539 1539 1540 1540 1540 1540 1540 1540 1539 1539 1539 1538 1538 1538 1537 1537 1536 1536 1535 1535 1535 1534 1534 1534 1534 1534
1539 1539 1539 1539 1539 1538 1538 1538 1538 1538 1538 1538 1539 1539 1540 1540 1540 1540 1541 1541 1541 1541 1541 1541 1541 1541 1541 1540 1540 1539 1539 1538 1538 1537 1537 1536 1536 1535 1535 1535 1534 1534 1534
1540 1540 1540 1540 1540 1540 1540 1540 1540 1539 1539 1540 1540 1541 1541 1542 1542 1542 1543 1543 1543 1543 1543 1543 1543 1543 1542 1542 1541 1541 1540 1539 1539 1538 1538 1537 1536 1536 1535 1535 1535 1535 1535
1541 1541 1541 1541 1541 1541 1541 1541 1541 1541 1541 1542 1542 1543 1543 1544 1544 1544 1544 1545 1545 1545 1544 1544 1544 1544 1544 1543 1543 1542 1542 1541 1540 1539 1539 1538 1537 1536 1536 1536 1535 1535 1535
1542 1542 1542 1542 1543 1543 1543 1543 1543 1543 1543 1544 1544 1544 1545 1545 1546 1546 1546 1546 1546 1546 1546 1546 1546 1546 1545 1545 1544 1544 1543 1542 1541 1541 1540 1539 1538 1538 1537 1536 1536 1536 1535
1542 1543 1543 1543 1543 1544 1544 1544 1544 1544 1545 1545 1545 1546 1546 1547 1547 1547 1548 1548 1548 1548 1548 1548 1547 1547 1547 1546 1546 1545 1544 1544 1543 1542 1541 1541 1540 1539 1538 1538 1537 1536 1536
1542 1543 1544 1544 1544 1545 1545 1545 1545 1546 1546 1546 1547 1547 1547 1548 1548 1548 1549 1549 1549 1549 1549 1549 1549 1548 1548 1548 1547 1546 1546 1545 1544 1543 1543 1542 1541 1540 1540 1539 1538 1537 1537
1543 1543 1544 1544 1545 1545 1546 1546 1546 1547 1547 1547 1548 1548 1548 1549 1549 1550 1550 1550 1550 1550 1550 1550 1550 1550 1549 1549 1548 1548 1547 1547 1546 1545 1544 1544 1543 1542 1542 1541 1540 1539 1538
1543 1543 1544 1545 1545 1546 1546 1547 1547 1548 1548 1548 1549 1549 1550 1550 1550 1550 1551 1551 1551 1552 1551 1551 1551 1551 1551 1550 1550 1550 1549 1549 1548 1547 1546 1545 1545 1544 1543 1542 1542 1541 1540
1543 1544 1545 1545 1546 1546 1547 1547 1548 1548 1549 1549 1549 1550 1550 1551 1551 1551 1552 1552 1552 1552 1553 1553 1552 1552 1552 1552 1551 1551 1551 1550 1550 1549 1548 1547 1547 1546 1545 1544 1543 1543 1542
1543 1544 1545 1546 1546 1547 1547 1548 1548 1549 1549 1550 1550 1551 1551 1551 1552 1552 1552 1553 1553 1553 1553 1553 1553 1553 1553 1553 1553 1552 1552 1552 1551 1551 1550 1549 1548 1547 1547 1546 1545 1545 1544
1543 1544 1545 1546 1546 1547 1548 1548 1549 1549 1550 1550 1551 1551 1551 1552 1552 1553 1553 1553 1554 1554 1554 1554 1554 1554 1554 1554 1554 1554 1553 1553 1553 1552 1552 1551 1550 1549 1548 1548 1547 1546 1546
1543 1544 1545 1546 1546 1547 1548 1549 1549 1550 1550 1551 1551 1551 1552 1552 1553 1553 1553 1554 1554 1555 1555 1555 1555 1555 1555 1555 1555 1555 1555 1554 1554 1554 1553 1553 1552 1551 1550 1549 1549 1548 1547
1543 1544 1545 1546 1547 1547 1548 1549 1549 1550 1550 1551 1551 1552 1552 1552 1553 1553 1553 1554 1554 1555 1555 1555 1555 1555 1555 1555 1555 1555 1556 1555 1555 1555 1554 1554 1553 1552 1551 1551 1550 1549 1549
1543 1544 1545 1545 1546 1547 1548 1548 1549 1549 1550 1551 1551 1551 1552 1552 1553 1553 1553 1554 1554 1555 1555 1555 1555 1556 1556 1556 1556 1556 1556 1556 1556 1556 1555 1555 1554 1553 1553 1552 1551 1550 1550
1542 1543 1544 1545 1546 1547 1548 1548 1549 1549 1550 1550 1551 1551 1551 1552 1552 1552 1553 1554 1554 1554 1555 1555 1555 1555 1556 1556 1556 1556 1556 1558 1557 1557 1556 1555 1555 1554 1554 1553 1552 1551 1551
1541 1542 1544 1545 1546 1547 1548 1548 1549 1549 1549 1550 1550 1550 1551 1551 1551 1552 1552 1553 1553 1554 1554 1554 1554 1555 1555 1556 1556 1556 1556 1556 1557 1557 1556 1556 1556 1555 1554 1553 1553 1552 1551
1540 1542 1543 1544 1545 1546 1547 1547 1548 1548 1548 1549 1550 1550 1550 1551 1551 1551 1552 1552 1552 1553 1553 1553 1554 1554 1554 1555 1555 1555 1556 1555 1556 1556 1557 1556 1556 1555 1554 1554 1553 1552 1552
1539 1541 1542 1543 1544 1545 1546 1547 1547 1548 1548 1549 1549 1550 1550 1550 1551 1551 1551 1551 1551 1552 1552 1552 1553 1553 1553 1554 1554 1554 1554 1554 1555 1555 1555 1556 1556 1555 1554 1554 1553 1552 1552
1538 1540 1541 1542 1543 1545 1545 1546 1546 1547 1548 1548 1548 1549 1549 1549 1550 1550 1550 1550 1550 1551 1551 1551 1551 1552 1552 1552 1553 1553 1553 1553 1553 1554 1554 1554 1554 1555 1554 1554 1553 1552 1551